Погода Ирбейское

Погода Ирбейское : погода сейчас, прогноз погоды и архив. Всё, что Вы хотите узнать о погоде Ирбейское!

Поиск расширенной информации на нашем сайте:

Другие новости

Новости СМИ2

Главная страница сайта

Новости сайта

03.07.2017

Напоминаем, что на нашем специализированном сайте Метеоцентр.Азия вы можете получить высокодетализированные автоматические прогнозы погоды по пунктам России, СНГ и мира в авиационном формате (включающие направление и скорость ветра, видимость, явления погоды, количество и форму облачности, нижнюю и верхнюю границу облачности).

Рекомендуем: купить подарок мужу в Екатеринбурге

Погода Ирбейское - сегодня

Время (UTC), дата Ветер
(°,м/с) 
Видим.   Явления Облачность Т
(°С)
Тd
(°С)
f(%) Тe
(°С)
Pmin
(гПа)
dP
(гПа)
Po
(мм)
O2
(г/м3)
Тmin Tmax R s Состояние
почвы
03 19.11.17 270 (З) 4000 м    9/4 1000 м средняя, верхняя 
[Sc|Ac lent|Ci sp]
-10.7 -12.5 87 -11  1021  -1.4  741  312           
06 19.11.17 240 (ЮЗ) 4000 м  дымка  9/8 600 м кучево-дожд., средняя, верхняя 
[Cb cap|Ac trans|Ci sp]
-4.5 -8.6 73 -4  1018.8  -1.5  740  304           
09 19.11.17 270 (З) 20000 м    9/8 600 м кучево-дожд., средняя, верхняя 
[Cb cap|Ac trans|Ci sp]
+0.4 -9 49 -1  1018.3  0.1  740  299           
12 19.11.17 280 (З) н/о  позёмок  10/10 600 м кучево-дожд. 
[Cb cap]
+0.6 -7.9 53 -1  1020.4  2.1  742  299    +2       
15 19.11.17 250 (З) 4{11}  н/о  позёмок  9/9 600 м кучево-дожд. 
[Cb cap]
-0.9 -4.3 78 -3  1021.4  0.9  742  301           
18 19.11.17 250 (З) н/о  {ливн. осадки}  10/10 600 м кучево-дожд. 
[Cb cap]
-2 -4.3 84 -4  1021.7  742  302           
21 19.11.17 260 (З) н/о    10/10 600 м кучево-дожд. 
[Cb cap]
-2 -5.8 75 -4  1022.3  0.6  743  302           
00 20.11.17 280 (З) н/о  слаб. ливневой снег  10/10 600 м кучево-дожд. 
[Cb cap]
-2.7 -6.7 74 -5  1024.2  1.8  744  304  -2.7      равномерный
сухой снег
100% 
03 20.11.17 270 (З) 20000 м  {ливн. осадки}  9/8 600 м кучево-дожд., средняя 
[Cb cap|Ac lent]
-5.3 -10.5 67 -7  1026.3  1.8  746  307  -5.5         
06 20.11.17 250 (З) 4000 м  слаб. ливневой снег  9/9 600 м кучево-дожд. 
[Cb cap]
-4.7 -7.6 80 -7  1026.3  746  306           
09 20.11.17 270 (З) 20000 м  позёмок{ливн. осадки}  10/10 600 м кучево-дожд. 
[Cb cap]
-4.9 -8.7 75 -9  1026.7  0.4  746  307           
12 20.11.17 260 (З) 3{12}  н/о  {ливн. осадки}  9/9 600 м кучево-дожд. 
[Cb cap]
-6.5 -10.6 73 -9  1029.1  2.2  747  310    -2.7  0.2     
15 20.11.17 270 (З) н/о    10/10 600 м кучево-дожд. 
[Cb cap]
-6.8 -10.7 74 -9  1030  0.8  748  310           
18 20.11.17 280 (З) н/о    10/10 600 м кучево-дожд. 
[Cb cap]
-7.2 -10.9 75 -10  1030.6  0.6  748  311           
21 20.11.17 250 (З) н/о  {ливн. осадки}  10/10 600 м кучево-дожд. 
[Cb cap]
-8.3 -11.3 79 -10  1031.7  0.9  749  312           
00 21.11.17 тихо ()   н/о  слаб. снег  10/10 600 м 
[Ns]
-8.8 -10.5 87 -9  1032.1  0.3  749  313  -8.8    0.4  равномерный
сухой снег
100% 
03 21.11.17 тихо ()   2000 м  снег  10/10 600 м 
[Ns]
-7.8 -9.6 87 -8  1032  749  312           
06 21.11.17 тихо ()   2000 м  снег  10/10 600 м 
[Ns]
-5.4 -7.7 84 -5  1031  -0.6  749  309           
09 21.11.17 260 (З) 4000 м  слаб. снег  9/3 1000 м средняя, верхняя 
[Sc|Ac lent|Cs]
-4.4 -6.4 86 -6  1030.5  -0.4  749  307           
12 21.11.17 260 (З) н/о  слаб. снег  10/4 1000 м средняя 
[Sc|Ac As]
-3.5 -6.3 81 -5  1030.1  -0.3  748  306    -3.5     
15 21.11.17 250 (З) н/о  слаб. снег  10/4 1000 м средняя 
[Sc|As op]
-3.3 -5.9 82 -6  1029.1  -0.9  748  306           
18 21.11.17 270 (З) н/о  слаб. снег  10/3 1000 м средняя 
[Sc|As op]
-3.7 -5.8 85 -6  1028.8  -0.4  747  306           
21 21.11.17 240 (ЮЗ) н/о  слаб. снег  10/0 средняя 
[As op]
-4 -4.5 96 -4  1027.7  -1.1  747  306           
00 22.11.17 250 (З) н/о  слаб. снег  10/4 1000 м средняя 
[Sc|As op]
-3.6 -4.2 96 -7  1025.5  -2  745  305  -4.1    13  равномерный
сухой снег
100% 
03 22.11.17 250 (З) 2000 м  снег  10/0 средняя 
[As op]
-4 -4.5 96 -5  1022.8  -2.7  743  304           
Время (UTC), дата Ветер
(°,м/с) 
Видим.   Явления Облачность Т
(°С)
Тd
(°С)
f(%) Тe
(°С)
Pmin
(гПа)
dP
(гПа)
Po
(мм)
O2
(г/м3)
Тmin Tmax R s Состояние
почвы

Для получения пояснительной информации подведите курсор к названию столбца.

ПОГОДА Ирбейское - архив

Всё, что Вы хотите узнать о погоде Ирбейское - удобно и подробно!

Выберите нужную дату (начиная с 1 января 2015* года) и нажмите кнопку "Найти".
Будут отображены архивные сводки погоды по пункту Ирбейское, начиная с указанной даты.


Отображать данные в формате CSV (для использования в таблицах Excel)


Внимание! Наш архив погоды предназначен исключительно для личного некоммерческого использования в познавательных целях. Если Вам необходимы официальные справки о состоянии погоды (для производственных, юридических, коммерческих и т.п. целей), обращайтесь в органы Росгидромета.

*Примечание: данная дата относится к архиву по метеостанциям СССР (Россия, СНГ, Балтия).
Архив по метеостанциям Зарубежной Европы и Азии (кроме Китая) хранится 10 дней, по другим регионам земного шара (Китай, Африка, Америка, Австралия, Океания) - 1 день.

Ирбейское - район местоположения метеостанции


Название, широта, долгота, высота метеостанции:
Ирбейское 55.6°ш. 95.5°д. 252 м над ур. моря [Российская Федерация]

Дополнительная информация

В oтличие oт бoльшинства пoгoдных сайтoв мы публикуем пoдрoбную метеoинфoрмацию в детальнoм прoфессиoнальнoм фoрмате.

Характеристики температуры и влажнoсти вoздуха измеряются на высoте 2 м в тени вдали oт зданий и деревьев.
Скoрoсть ветра измеряется на высoте 10 м (на урoвне рoста челoвека скoрoсть ветра ниже в 1.5-2 раза). Если метеoстанция нахoдится в гoрoде или в лесу, тo скoрoсть ветра занижена на 2-4 м/с пo сравнению с oткрытым местoм. Скoрoсть ветра над акватoриями крупных рек и oзёр, а также на вершинах хoлмoв на 2-5 м/с выше, чем в oбычных услoвиях.
Атмoсфернoе давление в разных тoчках местнoсти мoжет значительнo oтличаться oт давления на метеoстанции, в зависимoсти oт услoвий рельефа (при пoдъёме на 10 м давление пoнижается примернo на 1 мм рт.ст.).